Voltar ao catálogo

ARIANE 2 DEB

AtivoGTO
NORAD 26729·DEBRIS·🇫🇷 France

Lançado Jan 27, 1989 de Guiana Space Centre

Loading…

TLE

EnvelhecendoSource: Space-Track

Época: Sep 14, 2026, 10:56 UTC

1 26729U 89006G   26257.45577349  .00000102  00000-0  70977-3 0  9991
2 26729   8.3789 297.9015 7177333 351.5318   1.1113  2.31273509214414

Acompanhe ARIANE 2 DEB em tempo real com AllMySat

Download on the App Store